TimeMST,TemperatureF,Dew PointF,Humidity,Sea Level PressureIn,VisibilityMPH,Wind Direction,Wind SpeedMPH,Gust SpeedMPH,PrecipitationIn,Events,Conditions,WindDirDegrees,DateUTC
12:23 AM,32.0,26.6,80,29.94,10.0,SSW,9.2,-,0.00,,Overcast,210,2012-12-15 07:23:00
12:53 AM,32.0,27.0,82,29.93,10.0,South,5.8,-,0.00,,Overcast,170,2012-12-15 07:53:00
1:46 AM,32.0,26.6,80,29.94,10.0,NE,3.5,-,N/A,,Overcast,40,2012-12-15 08:46:00
1:53 AM,32.0,27.0,82,29.93,10.0,Calm,Calm,-,N/A,,Overcast,0,2012-12-15 08:53:00
2:38 AM,30.2,28.4,93,29.94,4.0,NE,4.6,-,0.00,Snow,Light Snow,40,2012-12-15 09:38:00
2:53 AM,30.9,28.9,92,29.93,10.0,NE,6.9,-,0.00,,Overcast,50,2012-12-15 09:53:00
3:16 AM,30.2,28.4,93,29.93,2.5,Calm,Calm,-,0.01,Snow,Light Snow,0,2012-12-15 10:16:00
3:21 AM,30.2,28.4,93,29.94,1.8,Calm,Calm,-,0.01,Snow,Light Snow,0,2012-12-15 10:21:00
3:30 AM,30.2,28.4,93,29.93,0.8,Calm,Calm,-,0.02,Snow,Light Snow,0,2012-12-15 10:30:00
3:38 AM,30.2,28.4,93,29.93,0.8,NE,4.6,-,0.03,Snow,Light Snow,50,2012-12-15 10:38:00
3:46 AM,30.2,28.4,93,29.92,1.0,NE,5.8,-,0.03,Snow,Light Snow,50,2012-12-15 10:46:00
3:53 AM,30.0,28.0,92,29.93,1.0,ENE,6.9,-,0.03,Snow,Light Snow,70,2012-12-15 10:53:00
3:58 AM,30.2,28.4,93,29.92,1.5,ENE,6.9,-,0.00,Snow,Light Snow,70,2012-12-15 10:58:00
4:03 AM,30.2,28.4,93,29.91,2.5,ENE,8.1,-,0.01,Snow,Light Snow,70,2012-12-15 11:03:00
4:18 AM,30.2,28.4,93,29.92,1.8,Calm,Calm,-,0.01,Snow,Light Snow,0,2012-12-15 11:18:00
4:29 AM,30.2,28.4,93,29.92,1.0,Calm,Calm,-,0.02,Snow,Light Snow,0,2012-12-15 11:29:00
4:49 AM,30.2,28.4,93,29.90,1.5,Calm,Calm,-,0.02,Snow,Light Snow,0,2012-12-15 11:49:00
4:53 AM,30.0,28.0,92,29.91,1.5,Calm,Calm,-,0.02,Snow,Light Snow,0,2012-12-15 11:53:00
5:21 AM,28.4,26.6,93,29.90,2.0,Calm,Calm,-,0.01,Snow,Light Snow,0,2012-12-15 12:21:00
5:31 AM,28.4,26.6,93,29.90,2.5,Calm,Calm,-,0.01,Snow,Light Snow,0,2012-12-15 12:31:00
5:39 AM,28.4,26.6,93,29.90,2.5,Calm,Calm,-,0.01,Snow,Light Snow,0,2012-12-15 12:39:00
5:43 AM,28.4,26.6,93,29.90,3.0,Calm,Calm,-,0.01,Snow,Light Snow,0,2012-12-15 12:43:00
5:53 AM,28.9,27.0,92,29.91,3.0,Calm,Calm,-,0.01,Snow,Light Snow,0,2012-12-15 12:53:00
6:02 AM,28.4,26.6,93,29.90,2.5,Calm,Calm,-,0.00,Snow,Light Snow,0,2012-12-15 13:02:00
6:12 AM,28.4,26.6,93,29.90,2.0,Calm,Calm,-,0.00,Snow,Light Snow,0,2012-12-15 13:12:00
6:37 AM,28.4,26.6,93,29.90,1.8,WSW,3.5,-,0.01,Snow,Light Snow,250,2012-12-15 13:37:00
6:45 AM,28.4,26.6,93,29.91,2.5,Calm,Calm,-,0.01,Snow,Light Snow,0,2012-12-15 13:45:00
7:03 AM,28.4,26.6,93,29.91,6.0,Calm,Calm,-,0.00,Snow,Light Snow,0,2012-12-15 14:03:00
7:23 AM,28.4,26.6,93,29.91,2.5,Calm,Calm,-,0.00,Snow,Light Snow,0,2012-12-15 14:23:00
7:27 AM,28.4,26.6,93,29.91,1.8,Calm,Calm,-,0.00,Snow,Light Snow,0,2012-12-15 14:27:00
7:38 AM,28.4,26.6,93,29.91,1.2,Calm,Calm,-,0.00,Snow,Light Snow,0,2012-12-15 14:38:00
7:53 AM,30.0,28.0,92,29.91,1.0,Calm,Calm,-,0.01,Snow,Light Snow,0,2012-12-15 14:53:00
8:14 AM,30.2,28.4,93,29.91,0.8,Calm,Calm,-,0.00,Snow,Light Snow,0,2012-12-15 15:14:00
8:21 AM,30.2,28.4,93,29.91,1.0,Calm,Calm,-,0.00,Snow,Light Snow,0,2012-12-15 15:21:00
8:31 AM,30.2,28.4,93,29.91,0.8,Calm,Calm,-,0.01,Snow,Light Snow,0,2012-12-15 15:31:00
8:38 AM,30.2,28.4,93,29.91,1.0,Calm,Calm,-,0.01,Snow,Light Snow,0,2012-12-15 15:38:00
8:53 AM,30.0,28.0,92,29.91,1.2,Calm,Calm,-,0.01,Snow,Light Snow,0,2012-12-15 15:53:00
9:03 AM,30.2,28.4,93,29.91,1.0,Calm,Calm,-,0.00,Snow,Light Snow,0,2012-12-15 16:03:00
9:14 AM,30.2,28.4,93,29.91,1.5,SW,3.5,-,0.00,Snow,Light Snow,230,2012-12-15 16:14:00
9:21 AM,30.2,28.4,93,29.91,1.2,SW,3.5,-,0.00,Snow,Light Snow,220,2012-12-15 16:21:00
9:27 AM,30.2,28.4,93,29.91,0.8,Calm,Calm,-,0.01,Snow,Light Snow,0,2012-12-15 16:27:00
9:46 AM,30.2,28.4,93,29.91,1.2,Calm,Calm,-,0.01,Snow,Light Snow,0,2012-12-15 16:46:00
9:53 AM,30.9,28.9,92,29.91,1.2,Calm,Calm,-,0.01,Snow,Light Snow,0,2012-12-15 16:53:00
10:05 AM,30.2,28.4,93,29.91,1.0,West,3.5,-,0.00,Snow,Light Snow,270,2012-12-15 17:05:00
10:19 AM,30.2,28.4,93,29.92,1.8,West,4.6,-,0.01,Snow,Light Snow,270,2012-12-15 17:19:00
10:25 AM,30.2,28.4,93,29.92,1.0,West,3.5,-,0.01,Snow,Light Snow,260,2012-12-15 17:25:00
10:30 AM,30.2,28.4,93,29.91,0.8,West,3.5,-,0.01,Snow,Light Snow,280,2012-12-15 17:30:00
10:40 AM,30.2,28.4,93,29.91,1.5,West,3.5,-,0.01,Snow,Light Snow,260,2012-12-15 17:40:00
10:43 AM,30.2,28.4,93,29.91,2.5,Calm,Calm,-,0.01,Snow,Light Snow,0,2012-12-15 17:43:00
10:50 AM,30.2,28.4,93,29.91,7.0,Calm,Calm,-,0.01,,Overcast,0,2012-12-15 17:50:00
10:53 AM,30.9,28.9,92,29.91,9.0,Calm,Calm,-,0.01,,Overcast,0,2012-12-15 17:53:00
11:02 AM,30.2,28.4,93,29.91,10.0,Calm,Calm,-,N/A,,Overcast,0,2012-12-15 18:02:00
11:13 AM,30.2,28.4,93,29.90,10.0,Variable,4.6,-,N/A,,Overcast,0,2012-12-15 18:13:00
11:53 AM,32.0,28.9,88,29.88,5.0,WSW,3.5,-,0.00,Snow,Light Snow,240,2012-12-15 18:53:00
11:58 AM,32.0,28.4,87,29.88,2.0,SW,4.6,-,0.01,Snow,Light Snow,230,2012-12-15 18:58:00
12:02 PM,32.0,30.2,93,29.88,1.2,WSW,3.5,-,0.01,Snow,Light Snow,240,2012-12-15 19:02:00
12:22 PM,32.0,30.2,93,29.88,1.5,WSW,3.5,-,0.01,Snow,Light Snow,250,2012-12-15 19:22:00
12:33 PM,33.8,30.2,87,29.87,2.5,West,4.6,-,0.01,Snow,Light Snow,270,2012-12-15 19:33:00
12:36 PM,32.0,30.2,93,29.87,3.0,West,3.5,-,0.01,Snow,Light Snow,260,2012-12-15 19:36:00
12:53 PM,32.0,30.0,92,29.87,3.0,SW,5.8,-,0.01,Snow,Light Snow,230,2012-12-15 19:53:00
1:05 PM,33.8,30.2,87,29.86,5.0,SW,4.6,-,0.00,Snow,Light Snow,220,2012-12-15 20:05:00
1:53 PM,33.1,30.9,92,29.84,10.0,Calm,Calm,-,0.00,,Overcast,0,2012-12-15 20:53:00
2:01 PM,33.8,30.2,87,29.85,2.5,Calm,Calm,-,0.00,Snow,Light Snow,0,2012-12-15 21:01:00
2:04 PM,33.8,30.2,87,29.85,1.8,Calm,Calm,-,0.00,Snow,Light Snow,0,2012-12-15 21:04:00
2:12 PM,33.8,30.2,87,29.85,2.5,Calm,Calm,-,0.00,Snow,Light Snow,0,2012-12-15 21:12:00
2:30 PM,33.8,30.2,87,29.84,3.0,WSW,3.5,-,0.00,Snow,Light Snow,240,2012-12-15 21:30:00
2:42 PM,33.8,30.2,87,29.84,2.5,Calm,Calm,-,0.00,Snow,Light Snow,0,2012-12-15 21:42:00
2:46 PM,33.8,30.2,87,29.84,1.8,Calm,Calm,-,0.00,Snow,Light Snow,0,2012-12-15 21:46:00
2:53 PM,34.0,30.0,85,29.83,1.5,Calm,Calm,-,0.00,Snow,Light Snow,0,2012-12-15 21:53:00
2:58 PM,33.8,30.2,87,29.83,2.0,Calm,Calm,-,0.00,Snow,Light Snow,0,2012-12-15 21:58:00
3:04 PM,33.8,30.2,87,29.83,3.0,Calm,Calm,-,0.00,Snow,Light Snow,0,2012-12-15 22:04:00
3:53 PM,33.1,30.0,89,29.80,5.0,NE,4.6,-,0.00,Snow,Light Snow,50,2012-12-15 22:53:00
4:18 PM,32.0,30.2,93,29.81,9.0,Calm,Calm,-,0.00,,Mostly Cloudy,0,2012-12-15 23:18:00
4:53 PM,32.0,30.0,92,29.81,10.0,Calm,Calm,-,0.00,,Overcast,0,2012-12-15 23:53:00
5:06 PM,32.0,30.2,93,29.80,2.5,Calm,Calm,-,0.00,Snow,Light Snow,0,2012-12-16 00:06:00
5:09 PM,32.0,30.2,93,29.80,1.8,Calm,Calm,-,0.00,Snow,Light Snow,0,2012-12-16 00:09:00
5:33 PM,30.2,28.4,93,29.79,2.0,Calm,Calm,-,0.00,Snow,Light Snow,0,2012-12-16 00:33:00
5:53 PM,30.9,28.9,92,29.80,1.8,WNW,3.5,-,0.01,Snow,Light Snow,300,2012-12-16 00:53:00
6:14 PM,30.2,28.4,93,29.79,1.0,West,3.5,-,0.01,Snow,Light Snow,280,2012-12-16 01:14:00
6:22 PM,30.2,30.2,100,29.79,0.8,Calm,Calm,-,0.02,Snow,Light Snow,0,2012-12-16 01:22:00
6:29 PM,30.2,30.2,100,29.79,1.0,Calm,Calm,-,0.02,Snow,Light Snow,0,2012-12-16 01:29:00
6:33 PM,30.2,30.2,100,29.80,1.2,WSW,3.5,-,0.02,Snow,Light Snow,250,2012-12-16 01:33:00
6:46 PM,30.2,30.2,100,29.80,0.5,SW,5.8,-,0.05,Fog-Snow,Snow,220,2012-12-16 01:46:00
6:53 PM,30.9,30.0,96,29.81,0.5,SSW,4.6,-,0.07,Fog-Snow,Snow,200,2012-12-16 01:53:00
7:02 PM,30.2,28.4,93,29.80,1.0,SW,3.5,-,0.01,Snow,Light Snow,220,2012-12-16 02:02:00
7:21 PM,30.2,28.4,93,29.79,1.5,West,5.8,-,0.01,Snow,Light Snow,280,2012-12-16 02:21:00
7:33 PM,30.2,28.4,93,29.79,1.2,West,6.9,-,0.02,Snow,Light Snow,270,2012-12-16 02:33:00
7:53 PM,30.0,28.9,96,29.81,0.8,WSW,3.5,-,0.04,Snow,Light Snow,250,2012-12-16 02:53:00
8:10 PM,30.2,28.4,93,29.80,0.5,WNW,4.6,-,0.04,Fog-Snow,Snow,300,2012-12-16 03:10:00
8:53 PM,28.9,27.0,92,29.82,0.5,NW,4.6,-,0.10,Fog-Snow,Snow,320,2012-12-16 03:53:00
9:01 PM,28.4,26.6,93,29.81,1.0,SW,3.5,-,0.00,Snow,Light Snow,220,2012-12-16 04:01:00
9:07 PM,28.4,26.6,93,29.82,1.5,SSW,5.8,-,0.00,Snow,Light Snow,200,2012-12-16 04:07:00
9:20 PM,28.4,26.6,93,29.82,1.0,South,4.6,-,0.01,Snow,Light Snow,190,2012-12-16 04:20:00
9:32 PM,28.4,26.6,93,29.83,0.5,SSW,6.9,-,0.02,Fog-Snow,Snow,210,2012-12-16 04:32:00
9:44 PM,28.4,26.6,93,29.84,0.5,SSW,4.6,-,0.04,Fog-Snow,Snow,210,2012-12-16 04:44:00
9:53 PM,28.9,27.0,92,29.85,0.5,Calm,Calm,-,0.05,Fog-Snow,Snow,0,2012-12-16 04:53:00
10:16 PM,28.4,26.6,93,29.84,1.0,Calm,Calm,-,0.03,Snow,Light Snow,0,2012-12-16 05:16:00
10:32 PM,28.4,26.6,93,29.84,2.0,WSW,3.5,-,0.03,Snow,Light Snow,240,2012-12-16 05:32:00
10:41 PM,28.4,26.6,93,29.85,2.5,SSW,4.6,-,0.03,Snow,Light Snow,210,2012-12-16 05:41:00
10:47 PM,28.4,26.6,93,29.85,3.0,Variable,4.6,-,0.03,Snow,Light Snow,0,2012-12-16 05:47:00
10:53 PM,28.9,26.1,89,29.87,4.0,West,9.2,-,0.03,Snow,Light Snow,260,2012-12-16 05:53:00
11:11 PM,28.4,26.6,93,29.87,7.0,WSW,6.9,-,0.00,Snow,Light Snow,250,2012-12-16 06:11:00
11:24 PM,28.4,26.6,93,29.87,4.0,WSW,8.1,-,0.00,Snow,Light Snow,240,2012-12-16 06:24:00
11:35 PM,28.4,26.6,93,29.87,5.0,West,8.1,-,0.00,Snow,Light Snow,280,2012-12-16 06:35:00
11:43 PM,28.4,26.6,93,29.88,7.0,West,3.5,-,0.00,Snow,Light Snow,260,2012-12-16 06:43:00
11:53 PM,28.0,26.1,92,29.89,9.0,Calm,Calm,-,0.00,,Overcast,0,2012-12-16 06:53:00